Location: Buckeye Ditch
(40.9104°N, 122.9517°W)
Time: 20:29:58
(UTC+00:00)

Cosmos 1766 - Visible Passes

Search period start: 18 July 2024 00:00
Search period end: 28 July 2024 00:00
Orbit: 484 x 501 km, 82.5° (Epoch: 17 July)

Date Brightness Start Highest point End Pass type
(mag) Time Alt. Az. Time Alt. Az. Time Alt. Az.
20 Jul 4.0 12:15:41 10° S 12:19:17 51° E 12:22:54 10° NNE visible
21 Jul 4.8 11:53:34 10° SSE 11:56:55 33° E 12:00:16 10° NNE visible
22 Jul 5.5 11:31:39 10° SE 11:34:32 22° E 11:37:26 10° NE visible
23 Jul 5.9 11:10:04 10° ESE 11:12:10 15° E 11:14:16 10° NE visible
24 Jul 3.4 12:20:55 10° SSW 12:24:30 48° W 12:28:06 10° N visible
25 Jul 3.0 11:58:13 10° S 12:01:56 78° W 12:05:38 10° N visible
26 Jul 3.4 11:36:09 13° S 11:39:21 65° E 11:43:01 10° NNE visible
27 Jul 4.3 11:14:10 16° SSE 11:16:47 40° E 11:20:16 10° NNE visible
